This is the latest recevied weather packets stored in our database for station/object K1ZK-13. If no packets are shown the sender has not sent any weather packets the latest 10 day(s).
| Time | Temp. | Humidity | Pressure | Rain* | Wind** | Luminosity | Snow |
|---|---|---|---|---|---|---|---|
| 1777510443 | 16.67° C | 58% | 1007.8 hPa | 0 mm | - | 0 W/m² | - |
| 1777510137 | 16.67° C | 56% | 1007.9 hPa | 0 mm | - | 0 W/m² | - |
| 1777509835 | 16.67° C | 56% | 1007.8 hPa | 0 mm | - | 0 W/m² | - |
| 1777509530 | 16.67° C | 56% | 1007.7 hPa | 0 mm | - | 0 W/m² | - |
| 1777509227 | 16.67° C | 56% | 1007.8 hPa | 0 mm | - | 0 W/m² | - |
| 1777508925 | 16.67° C | 56% | 1007.9 hPa | 0 mm | - | 0 W/m² | - |
| 1777508621 | 17.22° C | 57% | 1007.8 hPa | 0 mm | - | 0 W/m² | - |
| 1777508319 | 17.22° C | 56% | 1007.9 hPa | 0 mm | - | 0 W/m² | - |
| 1777508015 | 17.22° C | 55% | 1007.8 hPa | 0 mm | - | 0 W/m² | - |
| 1777507712 | 17.22° C | 55% | 1007.9 hPa | 0 mm | - | 0 W/m² | - |
| 1777507409 | 17.22° C | 55% | 1007.8 hPa | 0 mm | - | 0 W/m² | - |
| 1777507106 | 17.22° C | 55% | 1007.7 hPa | 0 mm | - | 1 W/m² | - |
| 1777506804 | 17.78° C | 54% | 1007.9 hPa | 0 mm | - | 1 W/m² | - |
| 1777506501 | 17.78° C | 55% | 1007.8 hPa | 0 mm | - | 2 W/m² | - |
| 1777506201 | 17.78° C | 54% | 1007.9 hPa | 0 mm | - | 3 W/m² | - |
| 1777505898 | 17.78° C | 54% | 1007.9 hPa | 0 mm | - | 4 W/m² | - |
| 1777505594 | 17.78° C | 53% | 1007.8 hPa | 0 mm | - | 6 W/m² | - |
| 1777505291 | 17.78° C | 53% | 1007.8 hPa | 0 mm | - | 9 W/m² | - |
| 1777504988 | 18.33° C | 53% | 1007.6 hPa | 0 mm | - | 13 W/m² | - |
| 1777504685 | 18.33° C | 52% | 1007.8 hPa | 0 mm | - | 17 W/m² | - |
| 1777504382 | 18.33° C | 52% | 1007.4 hPa | 0 mm | - | 20 W/m² | - |
| 1777504076 | 18.89° C | 52% | 1007.7 hPa | 0 mm | - | 20 W/m² | - |
| 1777503773 | 18.89° C | 51% | 1007.6 hPa | 0 mm | - | 20 W/m² | - |
| 1777503470 | 18.89° C | 51% | 1007.5 hPa | 0 mm | - | 25 W/m² | - |
| 1777503165 | 18.89° C | 51% | 1007.7 hPa | 0 mm | - | 20 W/m² | - |
* Rain latest hour (hover to see other rain measurements)
** Current wind speed in m/s (hover to see current wind gust speed)